TAP248 KLAX-LPPT

Flight info

Callsign TAP248
Flight time N/A
Altitude 35000
Route OSHNN1 BEALE J146 DVC DCT KD54W DCT KD57Y DCT AYEGI DCT CNOTA J146 IOW DCT ENAME DCT MONKZ DCT UNBAR DCT CRL/N0463F370 DCT BEWEL DCT HERBA DCT SMYTH DCT WHATE DCT CELTK DCT FRILL DCT VITOL/M079F370 DCT AVAST DCT 42N060W 42N050W 42N040W/M079F390 42N030W 41N020W DCT ERPES/N0449F390 DCT XANEL DCT LAZET
Aircraft A339/H-SADE1E2E3GHIJ3J5M1P2RWXY/LB2D1

Departure

Time 2026-05-07 06:33
Airport Los Angeles International Airport (KLAX)

Arrival

Time N/A
Airport Lisbon Humberto Delgado Airport (LPPT)
Time Latitude Longitude Altitude Speed Heading
2026-05-07 06:07 33.94438 -118.41457 135 ft 0 kts 263°
2026-05-07 06:19 33.94439 -118.41446 135 ft 1 kts 264°
2026-05-07 06:19 33.94441 -118.41428 135 ft 1 kts 263°
2026-05-07 06:20 33.94442 -118.41411 135 ft 2 kts 262°
2026-05-07 06:20 33.94446 -118.41394 135 ft 2 kts 243°
2026-05-07 06:20 33.94452 -118.41383 135 ft 2 kts 230°
2026-05-07 06:20 33.94460 -118.41373 135 ft 2 kts 218°
2026-05-07 06:21 33.94469 -118.41365 135 ft 2 kts 206°
2026-05-07 06:21 33.94481 -118.41360 135 ft 2 kts 191°
2026-05-07 06:21 33.94494 -118.41358 135 ft 2 kts 177°
2026-05-07 06:21 33.94511 -118.41360 135 ft 2 kts 176°
2026-05-07 06:22 33.94531 -118.41361 135 ft 2 kts 174°
2026-05-07 06:22 33.94566 -118.41367 136 ft 1 kts 173°
2026-05-07 06:22 33.94567 -118.41367 136 ft 0 kts 173°
2026-05-07 06:24 33.94557 -118.41365 135 ft 3 kts 174°
2026-05-07 06:24 33.94514 -118.41359 135 ft 9 kts 174°
2026-05-07 06:25 33.94436 -118.41349 134 ft 13 kts 171°
2026-05-07 06:25 33.94329 -118.41332 134 ft 16 kts 174°
2026-05-07 06:25 33.94224 -118.41316 136 ft 14 kts 173°
2026-05-07 06:25 33.94138 -118.41303 136 ft 14 kts 174°
2026-05-07 06:26 33.94028 -118.41286 136 ft 14 kts 175°
2026-05-07 06:26 33.93931 -118.41273 137 ft 13 kts 173°
2026-05-07 06:26 33.93844 -118.41260 140 ft 11 kts 173°
2026-05-07 06:26 33.93780 -118.41240 141 ft 7 kts 134°
2026-05-07 06:27 33.93761 -118.41182 142 ft 7 kts 96°
2026-05-07 06:27 33.93764 -118.41115 143 ft 9 kts 83°
2026-05-07 06:27 33.93773 -118.41028 143 ft 13 kts 83°
2026-05-07 06:27 33.93786 -118.40908 144 ft 17 kts 83°
2026-05-07 06:28 33.93801 -118.40759 144 ft 21 kts 83°
2026-05-07 06:28 33.93821 -118.40563 141 ft 26 kts 83°
2026-05-07 06:28 33.93842 -118.40352 136 ft 27 kts 83°
2026-05-07 06:28 33.93866 -118.40127 132 ft 27 kts 83°
2026-05-07 06:29 33.93888 -118.39917 129 ft 26 kts 83°
2026-05-07 06:29 33.93909 -118.39706 127 ft 25 kts 83°
2026-05-07 06:29 33.93931 -118.39494 122 ft 25 kts 83°
2026-05-07 06:29 33.93953 -118.39283 119 ft 25 kts 84°
2026-05-07 06:30 33.93973 -118.39078 118 ft 24 kts 83°
2026-05-07 06:30 33.93994 -118.38879 116 ft 23 kts 83°
2026-05-07 06:30 33.94013 -118.38686 115 ft 22 kts 83°
2026-05-07 06:30 33.94032 -118.38498 114 ft 22 kts 83°
2026-05-07 06:31 33.94038 -118.38370 113 ft 9 kts 115°
2026-05-07 06:31 33.93986 -118.38332 113 ft 8 kts 167°
2026-05-07 06:31 33.93956 -118.38351 113 ft 5 kts 241°
2026-05-07 06:31 33.93945 -118.38396 113 ft 5 kts 263°
2026-05-07 06:32 33.93944 -118.38404 113 ft 1 kts 263°
2026-05-07 06:32 33.93926 -118.38585 114 ft 51 kts 263°
2026-05-07 06:32 33.93856 -118.39248 119 ft 106 kts 263°
2026-05-07 06:32 33.93745 -118.40337 135 ft 153 kts 263°
2026-05-07 06:33 33.93602 -118.41747 328 ft 176 kts 263°
2026-05-07 06:33 33.93460 -118.43180 903 ft 172 kts 263°
2026-05-07 06:33 33.93313 -118.44621 1327 ft 180 kts 263°
2026-05-07 06:33 33.92994 -118.46085 1797 ft 184 kts 240°
2026-05-07 06:34 33.92263 -118.47377 2108 ft 194 kts 231°
2026-05-07 06:34 33.91378 -118.48682 2390 ft 207 kts 231°
2026-05-07 06:34 33.90419 -118.50058 2666 ft 221 kts 230°
2026-05-07 06:34 33.89385 -118.51500 2947 ft 236 kts 230°
2026-05-07 06:35 33.88279 -118.53052 3243 ft 252 kts 230°
2026-05-07 06:35 33.87101 -118.54699 3574 ft 266 kts 227°
2026-05-07 06:35 33.85564 -118.55891 4087 ft 272 kts 195°
2026-05-07 06:35 33.83685 -118.55984 4718 ft 273 kts 168°
2026-05-07 06:36 33.81839 -118.55456 5284 ft 276 kts 166°
2026-05-07 06:36 33.79948 -118.54895 5823 ft 281 kts 166°
2026-05-07 06:36 33.78036 -118.54348 6390 ft 284 kts 167°
2026-05-07 06:36 33.76117 -118.53819 6947 ft 286 kts 167°
2026-05-07 06:37 33.74180 -118.53297 7493 ft 289 kts 166°
2026-05-07 06:37 33.72215 -118.52769 8026 ft 291 kts 165°
2026-05-07 06:37 33.70324 -118.51882 8527 ft 289 kts 139°
2026-05-07 06:37 33.69055 -118.50089 9052 ft 283 kts 111°
2026-05-07 06:38 33.68399 -118.47918 9638 ft 280 kts 104°
2026-05-07 06:38 33.67790 -118.45712 10236 ft 280 kts 105°
2026-05-07 06:38 33.67156 -118.43468 10586 ft 290 kts 105°
2026-05-07 06:38 33.66479 -118.41129 10823 ft 304 kts 106°
2026-05-07 06:39 33.65757 -118.38676 11060 ft 317 kts 106°
2026-05-07 06:39 33.65049 -118.36128 11288 ft 329 kts 102°
2026-05-07 06:39 33.64597 -118.33396 11543 ft 339 kts 94°
2026-05-07 06:39 33.64460 -118.30557 12011 ft 342 kts 88°
2026-05-07 06:40 33.64450 -118.27731 12581 ft 343 kts 88°
2026-05-07 06:40 33.64457 -118.24851 13113 ft 346 kts 88°
2026-05-07 06:40 33.64467 -118.21970 13618 ft 349 kts 86°
2026-05-07 06:40 33.64888 -118.19119 14085 ft 349 kts 66°
2026-05-07 06:41 33.66140 -118.16671 14588 ft 350 kts 47°
2026-05-07 06:41 33.67998 -118.14791 15116 ft 352 kts 36°
2026-05-07 06:41 33.69995 -118.13038 15655 ft 354 kts 37°
2026-05-07 06:41 33.71968 -118.11278 16160 ft 356 kts 37°
2026-05-07 06:42 33.73969 -118.09486 16648 ft 359 kts 37°
2026-05-07 06:42 33.75975 -118.07689 17125 ft 362 kts 37°
2026-05-07 06:42 33.78006 -118.05865 17618 ft 365 kts 37°
2026-05-07 06:42 33.80023 -118.04055 18103 ft 367 kts 37°
2026-05-07 06:43 33.82092 -118.02194 18599 ft 369 kts 37°
2026-05-07 06:43 33.84142 -118.00350 19075 ft 371 kts 37°
2026-05-07 06:43 33.86222 -117.98478 19529 ft 374 kts 37°
2026-05-07 06:43 33.88301 -117.96606 19992 ft 376 kts 37°
2026-05-07 06:44 33.90417 -117.94699 20477 ft 378 kts 37°
2026-05-07 06:44 33.92530 -117.92780 20914 ft 380 kts 37°
2026-05-07 06:44 33.94635 -117.90855 21344 ft 382 kts 37°
2026-05-07 06:44 33.96756 -117.88915 21764 ft 384 kts 37°
2026-05-07 06:45 33.98874 -117.86978 22162 ft 386 kts 37°
2026-05-07 06:45 34.01030 -117.85004 22544 ft 389 kts 37°
2026-05-07 06:45 34.03196 -117.83019 22912 ft 391 kts 36°
2026-05-07 06:45 34.05345 -117.81049 23270 ft 394 kts 36°
2026-05-07 06:46 34.07505 -117.78937 23655 ft 396 kts 40°
2026-05-07 06:46 34.09495 -117.76663 24025 ft 398 kts 44°
2026-05-07 06:46 34.11379 -117.74155 24386 ft 400 kts 48°
2026-05-07 06:46 34.13197 -117.71498 24758 ft 402 kts 49°
2026-05-07 06:47 34.14974 -117.68862 25120 ft 404 kts 49°
2026-05-07 06:47 34.16745 -117.66229 25455 ft 406 kts 49°
2026-05-07 06:47 34.18542 -117.63555 25776 ft 408 kts 49°
2026-05-07 06:47 34.20335 -117.60886 26082 ft 410 kts 49°
2026-05-07 06:48 34.22143 -117.58193 26380 ft 413 kts 49°
2026-05-07 06:48 34.23937 -117.55520 26703 ft 414 kts 49°
2026-05-07 06:48 34.25767 -117.52794 27009 ft 416 kts 49°
2026-05-07 06:48 34.27572 -117.50101 27299 ft 417 kts 49°
2026-05-07 06:49 34.29408 -117.47361 27581 ft 419 kts 49°
2026-05-07 06:49 34.31264 -117.44592 27868 ft 421 kts 49°
2026-05-07 06:49 34.33120 -117.41824 28154 ft 422 kts 49°
2026-05-07 06:49 34.34966 -117.39066 28419 ft 424 kts 49°
2026-05-07 06:50 34.36800 -117.36326 28665 ft 426 kts 49°
2026-05-07 06:50 34.38683 -117.33513 28905 ft 428 kts 49°
2026-05-07 06:50 34.40571 -117.30684 29130 ft 430 kts 49°
2026-05-07 06:50 34.42475 -117.27830 29351 ft 432 kts 49°
2026-05-07 06:51 34.44353 -117.25011 29583 ft 434 kts 49°
2026-05-07 06:51 34.46260 -117.22144 29836 ft 436 kts 49°
2026-05-07 06:51 34.48172 -117.19265 30066 ft 437 kts 49°
2026-05-07 06:51 34.50060 -117.16419 30292 ft 439 kts 49°
2026-05-07 06:52 34.51993 -117.13504 30520 ft 440 kts 49°
2026-05-07 06:52 34.53899 -117.10629 30745 ft 441 kts 49°
2026-05-07 06:52 34.55869 -117.07715 30987 ft 442 kts 48°
2026-05-07 06:52 34.57817 -117.04888 31258 ft 442 kts 48°
2026-05-07 06:53 34.59801 -117.02019 31558 ft 441 kts 48°
2026-05-07 06:53 34.61756 -116.99183 31859 ft 440 kts 47°
2026-05-07 06:53 34.63712 -116.96338 32147 ft 439 kts 47°
2026-05-07 06:53 34.65670 -116.93483 32444 ft 438 kts 48°
2026-05-07 06:54 34.67632 -116.90621 32718 ft 437 kts 48°
2026-05-07 06:54 34.69569 -116.87788 32977 ft 436 kts 47°
2026-05-07 06:54 34.71489 -116.84978 33238 ft 436 kts 48°
2026-05-07 06:54 34.73427 -116.82139 33517 ft 434 kts 47°
2026-05-07 06:55 34.75364 -116.79298 33778 ft 433 kts 47°
2026-05-07 06:55 34.77279 -116.76485 34050 ft 432 kts 47°
2026-05-07 06:55 34.79180 -116.73692 34320 ft 431 kts 47°
2026-05-07 06:55 34.81083 -116.70891 34562 ft 430 kts 47°
2026-05-07 06:56 34.82984 -116.68097 34799 ft 429 kts 47°
2026-05-07 06:56 34.84906 -116.65276 35038 ft 428 kts 47°
2026-05-07 06:56 34.86862 -116.62592 35250 ft 427 kts 45°
2026-05-07 06:56 34.88857 -116.59927 35442 ft 427 kts 45°
2026-05-07 06:57 34.90871 -116.57246 35659 ft 426 kts 45°
2026-05-07 06:57 34.92871 -116.54578 35859 ft 425 kts 45°
2026-05-07 06:57 34.94854 -116.51931 36003 ft 426 kts 45°
2026-05-07 06:57 34.96841 -116.49275 36156 ft 426 kts 45°
2026-05-07 06:58 34.98834 -116.46608 36303 ft 426 kts 45°
2026-05-07 06:58 35.00828 -116.43936 36432 ft 426 kts 45°
2026-05-07 06:58 35.02832 -116.41248 36550 ft 427 kts 45°
2026-05-07 06:58 35.04815 -116.38586 36659 ft 427 kts 45°
2026-05-07 06:59 35.08843 -116.33170 36851 ft 429 kts 45°
2026-05-07 06:59 35.10878 -116.30428 37008 ft 428 kts 45°
2026-05-07 06:59 35.12913 -116.27688 37018 ft 431 kts 45°
2026-05-07 07:00 35.16948 -116.22247 37030 ft 432 kts 45°
2026-05-07 07:00 35.20993 -116.16785 37026 ft 432 kts 45°
2026-05-07 07:01 35.25021 -116.11337 37024 ft 432 kts 45°
2026-05-07 07:01 35.29054 -116.05870 37015 ft 432 kts 45°
2026-05-07 07:02 35.33068 -116.00422 37013 ft 433 kts 45°
2026-05-07 07:02 35.37092 -115.94954 37029 ft 433 kts 45°
2026-05-07 07:03 35.41112 -115.89477 37059 ft 433 kts 45°
2026-05-07 07:03 35.45129 -115.83996 37081 ft 433 kts 45°
2026-05-07 07:04 35.49144 -115.78513 37095 ft 434 kts 45°
2026-05-07 07:04 35.53173 -115.73000 37103 ft 435 kts 45°
2026-05-07 07:05 35.57200 -115.67477 37110 ft 434 kts 45°
2026-05-07 07:05 35.61245 -115.61919 37117 ft 435 kts 45°
2026-05-07 07:06 35.65258 -115.56393 37122 ft 436 kts 45°
2026-05-07 07:06 35.69288 -115.50841 37132 ft 436 kts 45°
2026-05-07 07:07 35.73347 -115.45252 37137 ft 436 kts 45°
2026-05-07 07:07 35.77386 -115.39680 37119 ft 437 kts 45°
2026-05-07 07:08 35.81444 -115.34063 37097 ft 438 kts 45°
2026-05-07 07:08 35.85522 -115.28410 37076 ft 439 kts 45°
2026-05-07 07:09 35.89590 -115.22755 37058 ft 439 kts 45°
2026-05-07 07:09 35.93648 -115.17109 37053 ft 440 kts 45°
2026-05-07 07:10 35.97701 -115.11460 37048 ft 440 kts 45°
2026-05-07 07:10 36.01789 -115.05752 37042 ft 442 kts 45°
2026-05-07 07:11 36.05835 -115.00085 37047 ft 441 kts 45°
2026-05-07 07:11 36.09903 -114.94379 37050 ft 441 kts 45°
2026-05-07 07:12 36.13914 -114.88464 37048 ft 443 kts 50°
2026-05-07 07:12 36.17368 -114.82180 37054 ft 445 kts 55°
2026-05-07 07:13 36.20304 -114.75380 37056 ft 449 kts 61°
2026-05-07 07:13 36.22671 -114.68254 37075 ft 450 kts 65°
2026-05-07 07:14 36.24874 -114.61028 37089 ft 451 kts 65°
2026-05-07 07:14 36.27087 -114.53744 37089 ft 451 kts 65°
2026-05-07 07:15 36.29287 -114.46492 37089 ft 451 kts 65°
2026-05-07 07:15 36.31496 -114.39200 37093 ft 450 kts 65°
2026-05-07 07:16 36.33696 -114.31917 37097 ft 451 kts 66°
2026-05-07 07:16 36.35915 -114.24560 37100 ft 451 kts 66°
2026-05-07 07:17 36.38097 -114.17300 37100 ft 451 kts 66°
2026-05-07 07:17 36.40286 -114.09998 37099 ft 451 kts 66°
2026-05-07 07:18 36.42472 -114.02686 37099 ft 452 kts 66°
2026-05-07 07:18 36.44644 -113.95406 37113 ft 451 kts 66°
2026-05-07 07:19 36.46827 -113.88067 37126 ft 452 kts 66°
2026-05-07 07:19 36.49002 -113.80740 37147 ft 452 kts 66°
2026-05-07 07:20 36.51165 -113.73427 37161 ft 453 kts 66°
2026-05-07 07:20 36.53334 -113.66077 37178 ft 453 kts 66°
2026-05-07 07:21 36.55491 -113.58746 37198 ft 453 kts 66°
2026-05-07 07:21 36.57642 -113.51413 37204 ft 454 kts 65°
2026-05-07 07:22 36.59798 -113.44042 37220 ft 454 kts 66°
2026-05-07 07:22 36.61938 -113.36706 37224 ft 454 kts 66°
2026-05-07 07:23 36.64108 -113.29267 37234 ft 454 kts 66°
2026-05-07 07:23 36.66252 -113.21888 37234 ft 455 kts 66°
2026-05-07 07:24 36.68402 -113.14462 37236 ft 455 kts 66°
2026-05-07 07:24 36.70544 -113.07034 37238 ft 455 kts 66°
2026-05-07 07:25 36.73730 -112.95943 37238 ft 456 kts 66°
2026-05-07 07:26 36.75867 -112.88481 37238 ft 456 kts 66°
2026-05-07 07:26 36.77987 -112.81059 37241 ft 456 kts 66°
2026-05-07 07:27 36.80099 -112.73641 37232 ft 456 kts 66°
2026-05-07 07:27 36.82226 -112.66151 37236 ft 457 kts 66°
2026-05-07 07:28 36.84336 -112.58694 37242 ft 458 kts 66°
2026-05-07 07:28 36.86453 -112.51186 37239 ft 457 kts 66°
2026-05-07 07:29 36.88558 -112.43707 37245 ft 458 kts 66°
2026-05-07 07:29 36.90658 -112.36210 37247 ft 458 kts 66°
2026-05-07 07:30 36.92771 -112.28689 37252 ft 459 kts 67°
2026-05-07 07:30 36.94890 -112.21135 37249 ft 459 kts 67°
2026-05-07 07:31 36.96993 -112.13603 37251 ft 460 kts 67°
2026-05-07 07:31 36.99082 -112.06095 37247 ft 460 kts 67°
2026-05-07 07:32 37.01174 -111.98553 37251 ft 460 kts 67°
2026-05-07 07:32 37.03270 -111.90971 37256 ft 461 kts 67°
2026-05-07 07:33 37.05366 -111.83366 37257 ft 461 kts 67°
2026-05-07 07:33 37.07438 -111.75832 37253 ft 460 kts 67°
2026-05-07 07:34 37.09519 -111.68243 37258 ft 460 kts 67°
2026-05-07 07:34 37.11619 -111.60564 37250 ft 460 kts 67°
2026-05-07 07:35 37.13684 -111.52982 37251 ft 461 kts 67°
2026-05-07 07:35 37.15746 -111.45391 37245 ft 461 kts 67°
2026-05-07 07:36 37.17793 -111.37836 37243 ft 461 kts 67°
2026-05-07 07:36 37.19875 -111.30119 37242 ft 461 kts 68°
2026-05-07 07:37 37.21931 -111.22480 37236 ft 461 kts 68°
2026-05-07 07:37 37.23976 -111.14892 37234 ft 462 kts 68°
2026-05-07 07:38 37.26025 -111.07248 37235 ft 462 kts 68°
2026-05-07 07:38 37.28053 -110.99656 37237 ft 462 kts 68°
2026-05-07 07:39 37.30088 -110.92012 37234 ft 462 kts 68°
2026-05-07 07:39 37.32126 -110.84332 37232 ft 463 kts 68°
2026-05-07 07:40 37.34158 -110.76647 37229 ft 463 kts 68°
2026-05-07 07:40 37.36174 -110.69003 37230 ft 463 kts 68°
2026-05-07 07:41 37.38190 -110.61333 37231 ft 463 kts 68°
2026-05-07 07:41 37.40200 -110.53669 37232 ft 463 kts 68°
2026-05-07 07:42 37.42218 -110.45944 37231 ft 464 kts 68°
2026-05-07 07:42 37.44223 -110.38255 37232 ft 464 kts 68°
2026-05-07 07:43 37.46242 -110.30478 37236 ft 464 kts 68°
2026-05-07 07:43 37.48247 -110.22739 37234 ft 465 kts 68°
2026-05-07 07:44 37.50243 -110.15009 37233 ft 465 kts 68°
2026-05-07 07:44 37.52234 -110.07270 37234 ft 466 kts 68°
2026-05-07 07:45 37.54223 -109.99518 37231 ft 466 kts 68°
2026-05-07 07:45 37.56222 -109.91705 37232 ft 466 kts 68°
2026-05-07 07:46 37.58194 -109.83974 37229 ft 466 kts 68°
2026-05-07 07:46 37.60170 -109.76196 37229 ft 466 kts 68°
2026-05-07 07:47 37.62143 -109.68412 37229 ft 467 kts 68°
2026-05-07 07:47 37.64120 -109.60584 37223 ft 467 kts 68°
2026-05-07 07:48 37.66082 -109.52795 37213 ft 468 kts 68°
2026-05-07 07:48 37.68043 -109.44982 37213 ft 468 kts 68°
2026-05-07 07:49 37.70002 -109.37153 37223 ft 468 kts 68°
2026-05-07 07:49 37.71964 -109.29284 37232 ft 468 kts 69°
2026-05-07 07:50 37.73912 -109.21446 37233 ft 468 kts 69°
2026-05-07 07:50 37.75858 -109.13586 37224 ft 468 kts 69°
2026-05-07 07:51 37.77786 -109.05779 37225 ft 469 kts 69°
2026-05-07 07:51 37.79729 -108.97881 37228 ft 470 kts 69°
2026-05-07 07:52 37.81682 -108.90054 37244 ft 470 kts 68°
2026-05-07 07:52 37.83775 -108.82243 37257 ft 470 kts 67°
2026-05-07 07:53 37.85872 -108.74410 37281 ft 470 kts 67°
2026-05-07 07:53 37.87951 -108.66574 37281 ft 470 kts 67°
2026-05-07 07:54 37.90024 -108.58730 37292 ft 471 kts 67°
2026-05-07 07:54 37.92087 -108.50881 37321 ft 471 kts 67°
2026-05-07 07:55 37.94147 -108.43012 37339 ft 472 kts 67°
2026-05-07 07:55 37.96192 -108.35173 37341 ft 472 kts 67°
2026-05-07 07:56 37.98270 -108.27202 37358 ft 472 kts 68°
2026-05-07 07:56 38.00316 -108.19315 37363 ft 473 kts 68°
2026-05-07 07:57 38.02370 -108.11381 37400 ft 475 kts 68°
2026-05-07 07:57 38.04417 -108.03436 37401 ft 476 kts 68°
2026-05-07 07:58 38.06466 -107.95467 37397 ft 476 kts 68°
2026-05-07 07:58 38.08510 -107.87487 37407 ft 476 kts 68°
2026-05-07 07:59 38.10547 -107.79511 37421 ft 475 kts 68°
2026-05-07 07:59 38.12602 -107.71438 37410 ft 476 kts 68°
2026-05-07 08:00 38.14624 -107.63470 37416 ft 477 kts 68°
2026-05-07 08:00 38.16653 -107.55445 37409 ft 477 kts 68°
2026-05-07 08:01 38.18678 -107.47414 37432 ft 478 kts 68°
2026-05-07 08:01 38.19684 -107.43416 37274 ft 477 kts 68°
2026-05-07 08:01 38.20693 -107.39399 37364 ft 479 kts 68°
2026-05-07 08:02 38.22734 -107.31253 37371 ft 481 kts 68°
2026-05-07 08:02 38.24755 -107.23154 37397 ft 482 kts 68°
2026-05-07 08:03 38.26783 -107.15002 37393 ft 482 kts 68°
2026-05-07 08:03 38.28792 -107.06898 37392 ft 482 kts 68°
2026-05-07 08:04 38.30801 -106.98777 37355 ft 482 kts 69°
2026-05-07 08:04 38.31796 -106.94739 37540 ft 483 kts 69°
2026-05-07 08:04 38.32796 -106.90675 37218 ft 482 kts 68°
2026-05-07 08:04 38.33800 -106.86593 37527 ft 483 kts 69°
2026-05-07 08:05 38.34804 -106.82494 37445 ft 482 kts 68°
2026-05-07 08:05 38.36791 -106.74369 37402 ft 482 kts 68°
2026-05-07 08:06 38.38766 -106.66273 37363 ft 481 kts 69°
2026-05-07 08:06 38.40749 -106.58118 37345 ft 481 kts 68°
2026-05-07 08:07 38.42708 -106.50023 37330 ft 482 kts 68°
2026-05-07 08:07 38.44673 -106.41888 37315 ft 482 kts 68°
2026-05-07 08:08 38.46640 -106.33705 37320 ft 482 kts 69°
2026-05-07 08:08 38.48618 -106.25461 37323 ft 482 kts 69°
2026-05-07 08:09 38.50576 -106.17267 37298 ft 483 kts 69°
2026-05-07 08:09 38.52531 -106.09055 37260 ft 483 kts 69°
2026-05-07 08:10 38.54468 -106.00890 37243 ft 483 kts 69°
2026-05-07 08:10 38.56419 -105.92636 37255 ft 483 kts 69°
2026-05-07 08:11 38.58351 -105.84429 37284 ft 483 kts 68°
2026-05-07 08:11 38.60277 -105.76232 37305 ft 483 kts 69°
2026-05-07 08:12 38.62196 -105.68031 37313 ft 484 kts 69°
2026-05-07 08:12 38.63160 -105.63903 37163 ft 484 kts 69°
2026-05-07 08:12 38.64118 -105.59795 37401 ft 485 kts 69°
2026-05-07 08:12 38.65076 -105.55674 37178 ft 484 kts 69°
2026-05-07 08:13 38.66041 -105.51514 37274 ft 486 kts 69°
2026-05-07 08:13 38.67960 -105.43222 37298 ft 487 kts 69°
2026-05-07 08:14 38.69874 -105.34923 37303 ft 487 kts 69°
2026-05-07 08:14 38.71789 -105.26592 37299 ft 487 kts 69°
2026-05-07 08:15 38.73701 -105.18240 37310 ft 489 kts 69°
2026-05-07 08:15 38.75600 -105.09915 37334 ft 489 kts 69°
2026-05-07 08:16 38.77509 -105.01511 37324 ft 490 kts 69°
2026-05-07 08:16 38.79409 -104.93121 37234 ft 490 kts 69°
2026-05-07 08:17 38.81294 -104.84768 37160 ft 490 kts 69°
2026-05-07 08:17 38.83174 -104.76405 37129 ft 489 kts 69°
2026-05-07 08:18 38.85049 -104.68031 37164 ft 489 kts 69°
2026-05-07 08:18 38.86931 -104.59602 37165 ft 490 kts 69°
2026-05-07 08:19 38.88792 -104.51224 37162 ft 490 kts 69°
2026-05-07 08:19 38.90647 -104.42844 37155 ft 489 kts 69°
2026-05-07 08:20 38.92495 -104.34463 37145 ft 489 kts 70°
2026-05-07 08:20 38.94361 -104.25983 37184 ft 490 kts 70°
2026-05-07 08:21 38.96194 -104.17598 37168 ft 490 kts 70°
2026-05-07 08:21 38.98026 -104.09181 37168 ft 490 kts 70°
2026-05-07 08:22 38.99866 -104.00740 37151 ft 490 kts 69°
2026-05-07 08:22 39.01964 -103.92467 37154 ft 489 kts 66°
2026-05-07 08:23 39.04126 -103.84184 37152 ft 490 kts 67°
2026-05-07 08:23 39.06279 -103.75886 37158 ft 490 kts 67°
2026-05-07 08:24 39.08414 -103.67599 37153 ft 489 kts 67°
2026-05-07 08:24 39.10550 -103.59274 37158 ft 489 kts 67°
2026-05-07 08:25 39.12691 -103.50906 37153 ft 489 kts 67°
2026-05-07 08:25 39.14802 -103.42622 37152 ft 488 kts 67°
2026-05-07 08:26 39.17980 -103.30096 37145 ft 489 kts 68°
2026-05-07 08:26 39.20077 -103.21792 37141 ft 489 kts 67°
2026-05-07 08:27 39.22166 -103.13491 37137 ft 488 kts 67°
2026-05-07 08:27 39.24260 -103.05151 37129 ft 488 kts 67°
2026-05-07 08:28 39.26334 -102.96864 37125 ft 488 kts 67°
2026-05-07 08:28 39.28413 -102.88525 37116 ft 489 kts 68°
2026-05-07 08:29 39.30480 -102.80193 37112 ft 489 kts 68°
2026-05-07 08:29 39.32541 -102.71862 37103 ft 489 kts 68°
2026-05-07 08:30 39.34602 -102.63504 37088 ft 489 kts 68°
2026-05-07 08:30 39.36641 -102.55204 37074 ft 489 kts 67°
2026-05-07 08:31 39.38692 -102.46829 37072 ft 489 kts 67°
2026-05-07 08:31 39.40730 -102.38475 37067 ft 489 kts 67°
2026-05-07 08:32 39.42785 -102.30025 37064 ft 490 kts 68°
2026-05-07 08:32 39.44814 -102.21645 37062 ft 490 kts 68°
2026-05-07 08:33 39.46841 -102.13242 37052 ft 489 kts 68°
2026-05-07 08:33 39.48866 -102.04805 37037 ft 490 kts 68°
2026-05-07 08:34 39.50904 -101.96483 37033 ft 489 kts 66°
2026-05-07 08:34 39.53106 -101.88159 37040 ft 489 kts 66°
2026-05-07 08:35 39.55308 -101.79829 37033 ft 490 kts 66°
2026-05-07 08:35 39.57495 -101.71472 37027 ft 491 kts 66°
2026-05-07 08:36 39.59667 -101.63120 37026 ft 491 kts 66°
2026-05-07 08:36 39.61839 -101.54730 37020 ft 491 kts 66°
2026-05-07 08:37 39.63989 -101.46398 37017 ft 491 kts 66°
2026-05-07 08:37 39.66146 -101.38001 37013 ft 491 kts 66°
2026-05-07 08:38 39.68318 -101.29525 37007 ft 492 kts 66°
2026-05-07 08:38 39.70464 -101.21119 37012 ft 492 kts 66°
2026-05-07 08:39 39.72608 -101.12692 37016 ft 492 kts 66°
2026-05-07 08:39 39.74740 -101.04281 37028 ft 491 kts 66°
2026-05-07 08:40 39.76875 -100.95830 37037 ft 492 kts 66°
2026-05-07 08:40 39.78992 -100.87415 37036 ft 493 kts 66°
2026-05-07 08:41 39.81106 -100.78993 37035 ft 493 kts 66°
2026-05-07 08:41 39.83228 -100.70505 37023 ft 493 kts 66°
2026-05-07 08:42 39.85332 -100.62060 37025 ft 494 kts 66°
2026-05-07 08:42 39.87447 -100.53539 37016 ft 494 kts 66°
2026-05-07 08:43 39.89543 -100.45065 37020 ft 495 kts 66°
2026-05-07 08:43 39.91651 -100.36512 37026 ft 495 kts 66°
2026-05-07 08:44 39.93753 -100.27949 37016 ft 495 kts 66°
2026-05-07 08:44 39.95834 -100.19447 37008 ft 495 kts 66°
2026-05-07 08:45 39.97916 -100.10920 37015 ft 495 kts 67°
2026-05-07 08:45 39.99992 -100.02367 37011 ft 495 kts 66°
2026-05-07 08:46 40.02065 -99.93801 37022 ft 496 kts 66°
2026-05-07 08:46 40.04134 -99.85216 37023 ft 497 kts 66°
2026-05-07 08:47 40.06205 -99.76608 37016 ft 498 kts 66°
2026-05-07 08:47 40.08255 -99.68044 37014 ft 498 kts 66°
2026-05-07 08:48 40.10322 -99.59382 37013 ft 498 kts 67°
2026-05-07 08:48 40.12386 -99.50692 37013 ft 498 kts 67°
2026-05-07 08:49 40.14433 -99.42042 37009 ft 499 kts 67°
2026-05-07 08:49 40.16470 -99.33407 37008 ft 499 kts 67°
2026-05-07 08:50 40.18523 -99.24676 37003 ft 500 kts 68°
2026-05-07 08:50 40.20560 -99.15968 37005 ft 500 kts 68°
2026-05-07 08:51 40.22577 -99.07313 37005 ft 500 kts 67°
2026-05-07 08:51 40.24605 -98.98590 37013 ft 501 kts 67°
2026-05-07 08:52 40.26611 -98.89911 37012 ft 500 kts 67°
2026-05-07 08:52 40.28615 -98.81226 37000 ft 501 kts 67°
2026-05-07 08:53 40.30625 -98.72479 37003 ft 501 kts 67°
2026-05-07 08:53 40.32620 -98.63754 36990 ft 502 kts 68°
2026-05-07 08:54 40.34615 -98.55003 36986 ft 503 kts 68°
2026-05-07 08:54 40.36609 -98.46211 36985 ft 503 kts 68°
2026-05-07 08:55 40.38604 -98.37391 36980 ft 504 kts 67°
2026-05-07 08:55 40.40586 -98.28590 36976 ft 505 kts 68°
2026-05-07 08:56 40.42570 -98.19747 36977 ft 505 kts 68°
2026-05-07 08:56 40.44547 -98.10895 36971 ft 506 kts 68°
2026-05-07 08:57 40.46522 -98.02012 36964 ft 505 kts 68°
2026-05-07 08:57 40.48484 -97.93160 36966 ft 506 kts 68°
2026-05-07 08:58 40.50442 -97.84296 36956 ft 506 kts 68°
2026-05-07 08:58 40.52396 -97.75410 36949 ft 509 kts 68°
2026-05-07 08:59 40.54335 -97.66546 36954 ft 509 kts 68°
2026-05-07 08:59 40.56290 -97.57573 36949 ft 509 kts 68°
2026-05-07 09:00 40.58237 -97.48603 36966 ft 511 kts 68°
2026-05-07 09:00 40.60180 -97.39624 36953 ft 513 kts 69°
2026-05-07 09:01 40.62122 -97.30607 36950 ft 513 kts 69°
2026-05-07 09:01 40.64069 -97.21522 36954 ft 514 kts 70°
2026-05-07 09:02 40.65985 -97.12524 36950 ft 514 kts 69°
2026-05-07 09:02 40.67912 -97.03442 36961 ft 515 kts 69°
2026-05-07 09:03 40.69794 -96.94401 36968 ft 518 kts 71°
2026-05-07 09:03 40.71514 -96.85164 36976 ft 519 kts 72°
2026-05-07 09:04 40.73206 -96.75915 36980 ft 520 kts 71°
2026-05-07 09:04 40.74907 -96.66630 36976 ft 520 kts 72°
2026-05-07 09:05 40.76598 -96.57410 36978 ft 522 kts 72°
2026-05-07 09:05 40.78298 -96.48099 36975 ft 522 kts 71°
2026-05-07 09:06 40.79980 -96.38844 36964 ft 523 kts 72°
2026-05-07 09:06 40.81676 -96.29479 36968 ft 523 kts 72°
2026-05-07 09:07 40.83358 -96.20117 36966 ft 523 kts 72°
2026-05-07 09:07 40.85031 -96.10783 36969 ft 523 kts 72°
2026-05-07 09:08 40.86693 -96.01459 36964 ft 524 kts 73°
2026-05-07 09:08 40.88352 -95.92096 36976 ft 525 kts 72°
2026-05-07 09:09 40.90012 -95.82678 36978 ft 526 kts 72°
2026-05-07 09:09 40.91649 -95.73343 36997 ft 526 kts 72°
2026-05-07 09:10 40.93300 -95.63888 36987 ft 526 kts 73°
2026-05-07 09:10 40.94932 -95.54485 36987 ft 527 kts 72°
2026-05-07 09:11 40.96563 -95.45056 36976 ft 528 kts 73°
2026-05-07 09:11 40.98182 -95.35641 36970 ft 528 kts 73°
2026-05-07 09:12 40.99814 -95.26085 36972 ft 530 kts 73°
2026-05-07 09:12 41.01430 -95.16596 36962 ft 531 kts 74°
2026-05-07 09:13 41.03041 -95.07063 36972 ft 531 kts 74°
2026-05-07 09:13 41.04639 -94.97540 36959 ft 531 kts 73°
2026-05-07 09:14 41.06247 -94.87949 36969 ft 534 kts 73°
2026-05-07 09:14 41.07839 -94.78381 36963 ft 534 kts 74°
2026-05-07 09:15 41.09425 -94.68796 36978 ft 534 kts 74°
2026-05-07 09:15 41.11018 -94.59115 36979 ft 535 kts 74°
2026-05-07 09:16 41.12607 -94.49417 36978 ft 535 kts 74°
2026-05-07 09:16 41.14174 -94.39785 37039 ft 535 kts 74°
2026-05-07 09:17 41.15743 -94.30102 36987 ft 534 kts 75°
2026-05-07 09:17 41.17290 -94.20488 36962 ft 534 kts 75°
2026-05-07 09:18 41.18838 -94.10813 36968 ft 536 kts 75°
2026-05-07 09:18 41.20370 -94.01186 36948 ft 536 kts 75°
2026-05-07 09:19 41.21905 -93.91483 36966 ft 537 kts 75°
2026-05-07 09:19 41.23428 -93.81812 36972 ft 537 kts 76°
2026-05-07 09:20 41.24949 -93.72079 36979 ft 538 kts 75°
2026-05-07 09:20 41.26455 -93.62387 36983 ft 538 kts 75°
2026-05-07 09:21 41.27961 -93.52657 36977 ft 538 kts 76°
2026-05-07 09:21 41.29455 -93.42936 36975 ft 539 kts 76°
2026-05-07 09:22 41.30949 -93.33153 36974 ft 541 kts 77°
2026-05-07 09:22 41.32446 -93.23283 36986 ft 541 kts 76°
2026-05-07 09:23 41.33922 -93.13499 36989 ft 541 kts 77°
2026-05-07 09:23 41.35401 -93.03655 36986 ft 541 kts 77°
2026-05-07 09:24 41.36861 -92.93852 36991 ft 541 kts 77°
2026-05-07 09:24 41.38318 -92.84014 36998 ft 543 kts 77°
2026-05-07 09:25 41.39755 -92.74223 37001 ft 543 kts 77°
2026-05-07 09:25 41.41198 -92.64365 37001 ft 544 kts 77°
2026-05-07 09:26 41.42636 -92.54452 36982 ft 545 kts 77°
2026-05-07 09:26 41.43899 -92.44559 36997 ft 546 kts 81°
2026-05-07 09:27 41.44902 -92.34531 36990 ft 546 kts 82°
2026-05-07 09:28 41.46378 -92.19356 36995 ft 548 kts 81°
2026-05-07 09:28 41.47350 -92.09354 36994 ft 548 kts 82°
2026-05-07 09:29 41.48322 -91.99286 36999 ft 548 kts 82°
2026-05-07 09:29 41.49287 -91.89199 37001 ft 549 kts 82°
2026-05-07 09:30 41.50238 -91.79166 37003 ft 549 kts 82°
2026-05-07 09:30 41.51181 -91.69122 37008 ft 549 kts 82°
2026-05-07 09:31 41.52201 -91.59027 37005 ft 549 kts 79°
2026-05-07 09:31 41.53525 -91.49037 37014 ft 548 kts 78°
2026-05-07 09:32 41.54881 -91.39014 37004 ft 549 kts 78°
2026-05-07 09:32 41.56218 -91.28986 37008 ft 549 kts 79°
2026-05-07 09:33 41.57549 -91.18829 37007 ft 549 kts 79°
2026-05-07 09:33 41.58851 -91.08820 37009 ft 550 kts 79°
2026-05-07 09:34 41.60148 -90.98782 37001 ft 550 kts 79°
2026-05-07 09:34 41.61441 -90.88707 37014 ft 550 kts 79°
2026-05-07 09:35 41.62719 -90.78657 37015 ft 550 kts 79°
2026-05-07 09:35 41.63989 -90.68602 37016 ft 549 kts 79°
2026-05-07 09:36 41.65252 -90.58548 37022 ft 550 kts 79°
2026-05-07 09:36 41.66504 -90.48505 37018 ft 551 kts 79°
2026-05-07 09:37 41.67748 -90.38431 37024 ft 551 kts 79°
2026-05-07 09:37 41.68993 -90.28286 37023 ft 551 kts 80°
2026-05-07 09:38 41.70216 -90.18234 37022 ft 552 kts 80°
2026-05-07 09:38 41.71440 -90.08084 37020 ft 552 kts 80°
2026-05-07 09:39 41.72648 -89.97955 37018 ft 551 kts 81°
2026-05-07 09:39 41.73550 -89.87821 37016 ft 552 kts 83°
2026-05-07 09:40 41.74358 -89.77609 37016 ft 553 kts 83°
2026-05-07 09:40 41.75164 -89.67352 37022 ft 553 kts 83°
2026-05-07 09:41 41.75967 -89.57108 37020 ft 553 kts 83°
2026-05-07 09:41 41.76763 -89.46896 37019 ft 554 kts 83°
2026-05-07 09:42 41.77555 -89.36600 37009 ft 554 kts 83°
2026-05-07 09:42 41.78342 -89.26273 37011 ft 555 kts 84°
2026-05-07 09:43 41.79115 -89.16016 37012 ft 554 kts 84°
2026-05-07 09:43 41.79877 -89.05728 37007 ft 555 kts 84°
2026-05-07 09:44 41.80632 -88.95429 37010 ft 556 kts 84°
2026-05-07 09:44 41.81381 -88.85075 37011 ft 556 kts 84°
2026-05-07 09:45 41.82119 -88.74786 37015 ft 556 kts 84°
2026-05-07 09:45 41.82846 -88.64468 37015 ft 556 kts 84°
2026-05-07 09:46 41.83565 -88.54151 37020 ft 557 kts 84°
2026-05-07 09:46 41.84280 -88.43792 37009 ft 557 kts 84°
2026-05-07 09:47 41.84986 -88.33391 37018 ft 557 kts 85°
2026-05-07 09:47 41.85678 -88.23010 37019 ft 558 kts 85°
2026-05-07 09:48 41.86361 -88.12690 37015 ft 559 kts 85°
2026-05-07 09:48 41.87040 -88.02213 37018 ft 559 kts 85°
2026-05-07 09:49 41.87710 -87.91774 37017 ft 559 kts 85°
2026-05-07 09:49 41.88356 -87.81454 37017 ft 560 kts 85°
2026-05-07 09:50 41.89088 -87.71071 37027 ft 559 kts 84°
2026-05-07 09:50 41.89867 -87.60731 37020 ft 561 kts 84°
2026-05-07 09:51 41.90635 -87.50322 37027 ft 561 kts 84°
2026-05-07 09:51 41.91383 -87.39963 37021 ft 561 kts 84°
2026-05-07 09:52 41.92127 -87.29426 37008 ft 561 kts 85°
2026-05-07 09:52 41.92857 -87.18984 37006 ft 561 kts 85°
2026-05-07 09:53 41.93573 -87.08589 37012 ft 562 kts 85°
2026-05-07 09:53 41.94281 -86.98197 37003 ft 562 kts 85°
2026-05-07 09:54 41.94977 -86.87770 37002 ft 561 kts 85°
2026-05-07 09:54 41.95673 -86.77322 37003 ft 562 kts 85°
2026-05-07 09:55 41.96350 -86.66908 36997 ft 562 kts 85°
2026-05-07 09:55 41.97021 -86.56432 36998 ft 562 kts 85°
2026-05-07 09:56 41.97686 -86.45951 36996 ft 563 kts 85°
2026-05-07 09:56 41.98336 -86.35539 36990 ft 563 kts 85°
2026-05-07 09:57 41.98994 -86.24855 36996 ft 564 kts 86°
2026-05-07 09:57 41.99626 -86.14435 36990 ft 564 kts 86°
2026-05-07 09:58 42.00250 -86.03919 36991 ft 565 kts 86°
2026-05-07 09:58 42.00868 -85.93401 36984 ft 565 kts 86°
2026-05-07 09:59 42.01481 -85.82839 36984 ft 566 kts 86°
2026-05-07 09:59 42.02081 -85.72299 36982 ft 566 kts 86°
2026-05-07 10:00 42.02673 -85.61714 36980 ft 565 kts 86°
2026-05-07 10:00 42.03247 -85.51216 36989 ft 566 kts 86°
2026-05-07 10:01 42.03821 -85.40675 36977 ft 566 kts 86°
2026-05-07 10:01 42.04380 -85.30082 36974 ft 567 kts 87°
2026-05-07 10:02 42.04850 -85.20207 36972 ft 565 kts 90°
2026-05-07 10:02 42.04962 -85.09920 36977 ft 566 kts 91°
2026-05-07 10:03 42.05001 -84.99361 36974 ft 565 kts 91°
2026-05-07 10:03 42.05040 -84.88786 36968 ft 565 kts 91°
2026-05-07 10:04 42.05080 -84.78181 36977 ft 566 kts 91°
2026-05-07 10:04 42.05116 -84.67610 36976 ft 566 kts 91°
2026-05-07 10:05 42.05138 -84.57081 36974 ft 567 kts 91°
2026-05-07 10:05 42.05154 -84.46448 36971 ft 567 kts 91°
2026-05-07 10:06 42.05162 -84.35857 36958 ft 567 kts 91°
2026-05-07 10:06 42.05158 -84.25457 36951 ft 567 kts 92°
2026-05-07 10:07 42.05141 -84.14792 36956 ft 567 kts 92°
2026-05-07 10:07 42.05115 -84.04191 36957 ft 567 kts 92°
2026-05-07 10:08 42.05084 -83.93546 36951 ft 566 kts 92°
2026-05-07 10:08 42.05037 -83.83023 36952 ft 567 kts 92°
2026-05-07 10:09 42.04985 -83.72358 36950 ft 568 kts 92°
2026-05-07 10:09 42.04918 -83.61723 36961 ft 568 kts 92°
2026-05-07 10:10 42.04848 -83.51115 36963 ft 568 kts 91°
2026-05-07 10:10 42.05276 -83.40501 36959 ft 570 kts 83°
2026-05-07 10:11 42.06325 -83.29884 36958 ft 570 kts 83°
2026-05-07 10:11 42.07428 -83.19236 36961 ft 570 kts 83°
2026-05-07 10:12 42.08485 -83.08685 36964 ft 570 kts 83°
2026-05-07 10:12 42.09516 -82.98148 36963 ft 570 kts 83°
2026-05-07 10:13 42.10545 -82.87451 36964 ft 570 kts 83°
2026-05-07 10:13 42.11563 -82.76761 36960 ft 571 kts 83°
2026-05-07 10:14 42.12554 -82.66234 36953 ft 571 kts 83°
2026-05-07 10:14 42.13543 -82.55635 36960 ft 571 kts 83°
2026-05-07 10:15 42.14522 -82.45045 36949 ft 571 kts 83°
2026-05-07 10:15 42.15487 -82.34473 36950 ft 571 kts 84°
2026-05-07 10:16 42.16434 -82.24058 36952 ft 571 kts 84°
2026-05-07 10:16 42.17381 -82.13464 36949 ft 572 kts 84°
2026-05-07 10:17 42.18322 -82.02853 36940 ft 572 kts 84°
2026-05-07 10:17 42.19246 -81.92316 36939 ft 572 kts 84°
2026-05-07 10:18 42.20170 -81.81672 36933 ft 572 kts 84°
2026-05-07 10:18 42.21080 -81.71072 36935 ft 572 kts 84°
2026-05-07 10:19 42.21981 -81.60416 36944 ft 573 kts 84°
2026-05-07 10:19 42.22878 -81.49767 36931 ft 573 kts 84°
2026-05-07 10:20 42.23760 -81.39138 36940 ft 573 kts 84°
2026-05-07 10:20 42.24626 -81.28557 36946 ft 572 kts 85°
2026-05-07 10:21 42.25475 -81.18082 36942 ft 571 kts 84°
2026-05-07 10:21 42.26325 -81.07483 36940 ft 572 kts 85°
2026-05-07 10:22 42.27170 -80.96797 36945 ft 574 kts 84°
2026-05-07 10:22 42.28001 -80.86141 36940 ft 574 kts 84°
2026-05-07 10:23 42.28778 -80.75478 36940 ft 575 kts 88°
2026-05-07 10:23 42.28897 -80.64699 36946 ft 573 kts 93°
2026-05-07 10:24 42.28754 -80.53985 36940 ft 574 kts 93°
2026-05-07 10:24 42.28619 -80.43302 36956 ft 574 kts 93°
2026-05-07 10:25 42.28494 -80.32757 36945 ft 575 kts 93°
2026-05-07 10:25 42.28368 -80.22035 36950 ft 575 kts 94°
2026-05-07 10:26 42.28233 -80.11285 36944 ft 574 kts 93°
2026-05-07 10:26 42.28083 -80.00479 36956 ft 574 kts 94°
2026-05-07 10:27 42.27928 -79.89781 36963 ft 573 kts 94°
2026-05-07 10:27 42.27751 -79.78974 36964 ft 574 kts 94°
2026-05-07 10:28 42.27573 -79.68182 36963 ft 574 kts 94°
2026-05-07 10:28 42.27388 -79.57463 36945 ft 575 kts 94°
2026-05-07 10:29 42.27190 -79.46697 36945 ft 576 kts 94°
2026-05-07 10:29 42.26980 -79.35889 36949 ft 576 kts 94°
2026-05-07 10:30 42.26644 -79.19577 36940 ft 577 kts 95°
2026-05-07 10:30 42.26408 -79.08748 36947 ft 577 kts 95°
2026-05-07 10:31 42.26168 -78.97987 36948 ft 577 kts 95°
2026-05-07 10:31 42.25908 -78.87176 36943 ft 578 kts 95°
2026-05-07 10:32 42.25643 -78.76276 36930 ft 579 kts 95°
2026-05-07 10:32 42.25367 -78.65469 36927 ft 580 kts 95°
2026-05-07 10:33 42.25221 -78.60010 36815 ft 580 kts 95°
2026-05-07 10:33 42.25074 -78.54601 36889 ft 581 kts 94°
2026-05-07 10:33 42.24779 -78.43741 36942 ft 582 kts 94°
2026-05-07 10:34 42.24473 -78.32845 36926 ft 582 kts 95°
2026-05-07 10:34 42.24685 -78.21838 36942 ft 584 kts 86°
2026-05-07 10:35 42.25536 -78.10847 36934 ft 584 kts 85°
2026-05-07 10:35 42.26426 -77.99987 36944 ft 585 kts 85°
2026-05-07 10:36 42.27278 -77.89093 36917 ft 586 kts 85°
2026-05-07 10:36 42.28103 -77.78172 36932 ft 585 kts 86°
2026-05-07 10:37 42.28905 -77.67264 36911 ft 586 kts 85°
2026-05-07 10:37 42.29705 -77.56358 36930 ft 586 kts 85°
2026-05-07 10:38 42.30501 -77.45360 36931 ft 585 kts 85°
2026-05-07 10:38 42.31274 -77.34454 36916 ft 585 kts 86°
2026-05-07 10:39 42.32042 -77.23448 36930 ft 586 kts 86°
2026-05-07 10:39 42.32809 -77.12468 36906 ft 586 kts 86°
2026-05-07 10:40 42.33560 -77.01443 36912 ft 587 kts 87°
2026-05-07 10:40 42.34299 -76.90545 36915 ft 586 kts 86°
2026-05-07 10:41 42.35019 -76.79584 36927 ft 586 kts 86°
2026-05-07 10:41 42.35744 -76.68586 36932 ft 587 kts 86°
2026-05-07 10:42 42.36447 -76.57614 36945 ft 586 kts 86°
2026-05-07 10:42 42.37143 -76.46693 36954 ft 585 kts 86°
2026-05-07 10:43 42.37823 -76.35731 36951 ft 586 kts 86°
2026-05-07 10:43 42.38510 -76.24593 36947 ft 585 kts 88°
2026-05-07 10:44 42.39183 -76.13543 36938 ft 586 kts 86°
2026-05-07 10:44 42.39832 -76.02627 36934 ft 585 kts 87°
2026-05-07 10:45 42.40478 -75.91624 36948 ft 585 kts 87°
2026-05-07 10:45 42.41100 -75.80695 36939 ft 586 kts 87°
2026-05-07 10:46 42.41724 -75.69733 36927 ft 585 kts 87°
2026-05-07 10:46 42.42331 -75.58784 36926 ft 586 kts 88°
2026-05-07 10:47 42.42937 -75.47806 36940 ft 585 kts 88°
2026-05-07 10:47 42.43524 -75.36822 36929 ft 586 kts 88°
2026-05-07 10:48 42.44110 -75.25705 36905 ft 586 kts 89°
2026-05-07 10:48 42.44633 -75.15670 36933 ft 585 kts 88°
2026-05-07 10:49 42.45193 -75.04623 36899 ft 587 kts 88°
2026-05-07 10:49 42.45745 -74.93655 36891 ft 588 kts 88°
2026-05-07 10:50 42.46281 -74.82624 36874 ft 587 kts 88°
2026-05-07 10:50 42.46822 -74.71564 36885 ft 587 kts 88°
2026-05-07 10:51 42.47327 -74.60578 36876 ft 588 kts 88°
2026-05-07 10:51 42.47845 -74.49500 36870 ft 586 kts 89°
2026-05-07 10:52 42.48343 -74.38522 36869 ft 587 kts 88°
2026-05-07 10:52 42.48835 -74.27288 36870 ft 587 kts 89°
2026-05-07 10:53 42.49263 -74.17404 36872 ft 587 kts 90°
2026-05-07 10:53 42.49727 -74.06413 36891 ft 588 kts 89°
2026-05-07 10:54 42.50185 -73.95336 36884 ft 588 kts 88°
2026-05-07 10:54 42.50279 -73.84356 36890 ft 583 kts 97°
2026-05-07 10:55 42.49676 -73.73399 36900 ft 583 kts 98°
2026-05-07 10:55 42.48990 -73.62467 36902 ft 582 kts 99°
2026-05-07 10:56 42.48333 -73.51611 36884 ft 582 kts 99°
2026-05-07 10:56 42.47676 -73.40706 36881 ft 583 kts 99°
2026-05-07 10:57 42.47010 -73.29710 36883 ft 584 kts 100°
2026-05-07 10:57 42.46342 -73.18855 36881 ft 583 kts 99°
2026-05-07 10:58 42.45663 -73.07967 36864 ft 583 kts 101°
2026-05-07 10:58 42.44978 -72.97212 36857 ft 582 kts 100°
2026-05-07 10:59 42.44428 -72.88664 36859 ft 580 kts 100°
2026-05-07 10:59 42.43714 -72.77806 36855 ft 583 kts 99°
2026-05-07 11:00 42.43082 -72.66901 36862 ft 584 kts 98°
2026-05-07 11:00 42.42520 -72.55909 36858 ft 585 kts 98°
2026-05-07 11:01 42.41948 -72.45122 36861 ft 585 kts 98°
2026-05-07 11:01 42.41354 -72.34336 36861 ft 585 kts 99°
2026-05-07 11:02 42.40754 -72.23673 36853 ft 586 kts 99°
2026-05-07 11:02 42.40179 -72.13551 36853 ft 585 kts 99°